Weather History for Miyakojima, Japan

Change the Weather History Date:

Tuesday, February 5, 2013

  Actual Average Record
Temperature  
Mean Temperature 74 °F -  
Max Temperature 78 °F 68 °F 78 °F (2013)
Min Temperature 69 °F 60 °F 53 °F (2004)
Cooling Degree Days 8    
Growing Degree Days 24 (Base 50)    
Moisture  
Dew Point 67 °F    
Average Humidity 78    
Maximum Humidity 92    
Minimum Humidity 65    
Precipitation  
Precipitation 0.00 in - - ()
Sea Level Pressure  
Sea Level Pressure 30.06 in    
Wind  
Wind Speed 9 mph ()    
Max Wind Speed 18 mph    
Max Gust Speed -    
Visibility 9.5 miles    
Events      
Averages and records for this station are not official NWS values.
T = Trace of Precipitation, MM = Missing Value Source: Averaged Metar Reports

Daily Weather History Graph

Daily Weather History Graph

Search for Another Location

Airport:

Trip Planner

Search our weather history database for the weather conditions in past years. The results will help you decide how hot, cold, wet, or windy it might be!

Date:

Astronomy

Feb. 05, 2013 Rise Set
Actual Time 7:19 AM JST 6:26 PM JST
Civil Twilight 6:55 AM JST 6:50 PM JST
Nautical Twilight 6:28 AM JST 7:17 PM JST
Astronomical Twilight 6:01 AM JST 7:44 PM JST
Moon 2:13 AM JST (2/5) 1:21 PM JST (2/5)
Length of Visible Light 11h 54m
Length of Day
11h 07m
Waning Crescent, 33% of the Moon is Illuminated
Feb 5
Waning Crescent
Feb 10
New
Feb 18
First Quarter
Feb 26
Full
Mar 5
Last Quarter

Hourly Weather History & Observations

Time (JST) Temp. Dew Point Humidity Pressure Visibility Wind Dir Wind Speed Gust Speed Precip Events Conditions
12:00 AM 71 °F 69 °F 92% 30.14 in - South 6.9 mph - -  
3:00 AM 70 °F 68 °F 91% 30.10 in 12 mi South 6.9 mph - -   Scattered Clouds
6:00 AM 70 °F 68 °F 91% 30.09 in 16 mi South 5.8 mph - -   Scattered Clouds
6:30 AM 69.8 °F 66.2 °F 88% 30.06 in 6.2 mi South 6.9 mph - N/A   Partly Cloudy
7:00 AM 69.8 °F 66.2 °F 88% 30.06 in 6.2 mi South 6.9 mph - N/A   Partly Cloudy
8:00 AM 69.8 °F 66.2 °F 88% 30.06 in 6.2 mi South 8.1 mph - N/A   Partly Cloudy
9:00 AM 73 °F 68 °F 80% 30.10 in 19 mi South 11.5 mph - -   Scattered Clouds
9:00 AM 73.4 °F 64.4 °F 73% 30.06 in 6.2 mi South 11.5 mph - N/A   Partly Cloudy
10:00 AM 75.2 °F 64.4 °F 69% 30.09 in 6.2 mi South 13.8 mph - N/A   Partly Cloudy
11:00 AM 77.0 °F 64.4 °F 65% 30.06 in 6.2 mi South 16.1 mph - N/A   Partly Cloudy
12:00 PM 76 °F 69 °F 75% 30.09 in 19 mi SW 12.7 mph - -   Partly Cloudy
12:00 PM 77.0 °F 66.2 °F 69% 30.06 in 6.2 mi SSW 15.0 mph - N/A   Scattered Clouds
1:00 PM 77.0 °F 66.2 °F 69% 30.04 in 6.2 mi SW 17.3 mph - N/A   Partly Cloudy
2:00 PM 78.8 °F 66.2 °F 65% 30.04 in 6.2 mi SW 18.4 mph - N/A   Partly Cloudy
3:00 PM 77 °F 69 °F 70% 30.06 in 19 mi WSW 13.8 mph - -   Scattered Clouds
3:00 PM 77.0 °F 66.2 °F 69% 30.04 in 6.2 mi WSW 15.0 mph - N/A   Partly Cloudy
4:00 PM 77.0 °F 66.2 °F 69% 30.04 in 6.2 mi WSW 13.8 mph - N/A   Partly Cloudy
5:00 PM 77.0 °F 68.0 °F 74% 30.04 in 6.2 mi WSW 11.5 mph - N/A   Partly Cloudy
6:00 PM 75 °F 69 °F 76% 30.06 in 19 mi WSW 9.2 mph - -   Scattered Clouds
6:00 PM 73.4 °F 66.2 °F 78% 30.04 in 6.2 mi WSW 9.2 mph - N/A   Partly Cloudy
7:00 PM 71.6 °F 68.0 °F 88% 30.04 in 6.2 mi West 4.6 mph - N/A   Scattered Clouds
8:00 PM 71.6 °F 68.0 °F 88% 30.04 in 6.2 mi WSW 5.8 mph - N/A   Scattered Clouds
9:00 PM 73 °F 69 °F 84% 30.07 in 12 mi WSW 3.5 mph - -   Scattered Clouds